Regional Weather Roundup
Issued by NWS

Home | Current Version | Previous Version | Text Only | Print | Product List | Glossary On
Versions: 1 2 3 4 5 6 7 8 9 10 11 12 13 14 15 16 17 18 19 20 21 22 23 24 25 26 27
000
ASUS46 KSEW 181510
RWRWA

WASHINGTON REGIONAL WEATHER ROUNDUP
NATIONAL WEATHER SERVICE SEATTLE WA
800 AM PDT WED OCT 18 2017

NOTE:"FAIR" INDICATES FEW OR NO CLOUDS BELOW 12,000 FEET WITH NO
SIGNIFICANT WEATHER AND/OR OBSTRUCTIONS TO VISIBILITY.

WAZ507-509-555>559-181600-
SEATTLE, TACOMA, EVERETT, AND VICINITY

CITY           SKY/WX    TMP DP  RH WIND       PRES   REMARKS
EVERETT        CLOUDY    48  40  73 SE9       29.88F
BOEING FIELD   LGT RAIN  48  42  80 SE6       29.90F
RENTON         LGT RAIN  48  44  86 S5        29.90F
SEATAC AIRPORT LGT RAIN  47  40  76 S5        29.89F
JBLM-MCCHORD   LGT RAIN  45  45  99 SE3       29.91F
PUYALLUP       DRIZZLE   46  43  87 CALM      29.90F
BREMERTON      LGT RAIN  45  45 100 SW5       29.88F
JBLM-FT LEWIS  LGT RAIN  45  45 100 CALM      29.89F
TACOMA NARROWS LGT RAIN  47  45  93 CALM      29.90F
$$

WAZ001-503-506-510-514-515-181600-
NORTH INTERIOR

CITY           SKY/WX    TMP DP  RH WIND       PRES   REMARKS
BELLINGHAM     LGT RAIN  47  40  76 E7        29.81F
FRIDAY HARBOR  LGT RAIN  50  45  83 E12G20    29.80F
EASTSOUND      LGT RAIN  54  41  62 S8G17     29.80F
PORT ANGELES   LGT RAIN  44  43  96 CALM      29.77F
EDIZ HOOK      LGT RAIN  46  43  90 CALM      29.76F
PORT TOWNSEND  MOCLDY    50  45  81 SE17G28   29.78F
NAS WHIDBEY    LGT RAIN  52  41  66 SE21G28   29.84F
ARLINGTON      LGT RAIN  45  42  89 CALM      29.88F
BURLINGTON     CLOUDY    50  41  71 E12       29.84F
$$

WAZ020-022-039-040-504-511-512-181600-
SOUTHWEST INTERIOR

CITY           SKY/WX    TMP DP  RH WIND       PRES   REMARKS
SHELTON        RAIN      47  45  93 CALM      29.87F FOG
OLYMPIA        LGT RAIN  46  45  96 CALM      29.90F FOG
CHEHALIS       LGT RAIN  50  48  93 S12       29.91F
KELSO          LGT RAIN  50  48  93 SE8       29.96F
VANCOUVER      LGT RAIN  51  51 100 SE9       29.97F
SCAPPOOSE, OR  LGT RAIN  49  49 100 CALM      29.96F FOG
PORTLAND, OR   LGT RAIN  50  49  96 SE9       29.98F
$$

WAZ021-516-517-181600-
WASHINGTON COAST

CITY           SKY/WX    TMP DP  RH WIND       PRES   REMARKS
FORKS          RAIN      50  48  93 SE12G26   29.72F FOG
HOQUIAM        LGT RAIN  49  48  97 NE10      29.84F FOG
ASTORIA, OR    LGT RAIN  50  48  93 E5        29.88F
$$

WAZ019-023-024-040-567>569-181600-
CASCADE MOUNTAINS AND COLUMBIA GORGE

CITY           SKY/WX    TMP DP  RH WIND       PRES   REMARKS
STAMPEDE PASS  CLOUDY    35  33  92 CALM      29.93S
TROUTDALE, OR  LGT RAIN  51  47  86 E6        29.98F
HOOD RIVER, OR LGT RAIN  43  41  93 CALM      30.01S
THE DALLES, OR CLOUDY    49  43  80 CALM      30.00F
$$

WAZ026-027-041>044-520-521-181600-
EAST SLOPES

CITY           SKY/WX    TMP DP  RH WIND       PRES   REMARKS
OMAK           MOCLDY    41  27  57 SE5       29.96F
WENATCHEE      CLOUDY    43  32  65 NW7       29.97S
ELLENSBURG     MOCLDY    37  33  85 NW6       29.96S
YAKIMA         CLOUDY    43  31  62 CALM      29.97F
SUNNYSIDE ARPT LGT RAIN  43  39  86 NW3       29.98S
YAKIMA TC      PTSUNNY   42  28  59 W3        29.94F
$$

WAZ028-034-035-181600-
COLUMBIA BASIN

CITY           SKY/WX    TMP DP  RH WIND       PRES   REMARKS
EPHRATA        CLOUDY    42  28  57 N6        29.97S
MOSES LAKE     CLOUDY    42  34  73 NE5       29.97F
PASCO          CLOUDY    48  44  86 CALM      29.98F
RICHLAND ARPT  LGT RAIN  49  45  86 CALM      29.98S
HERMISTON, OR  CLOUDY    50  46  86 N5        29.99F
$$

WAZ036>038-181600-
NORTHEAST WASHINGTON

CITY           SKY/WX    TMP DP  RH WIND       PRES   REMARKS
SPOKANE GEIGER MOCLDY    42  34  73 SE5       29.99F
SPOKANE FELTS  PTCLDY    44  32  62 CALM      30.01R
FAIRCHILD AFB  MOCLDY    41  34  75 SE5       29.98S
COEURDALENE,ID PTCLDY    44  34  67 S6        30.00F
DEER PARK      PTCLDY    30  25  81 NE3       30.00S
$$

WAZ029>033-181600-
SOUTHEAST WASHINGTON

CITY           SKY/WX    TMP DP  RH WIND       PRES   REMARKS
PULLMAN        CLOUDY    46  40  79 E12       30.01F
LEWISTON, ID   CLOUDY    50  40  68 CALM      30.02F
WALLA WALLA    CLOUDY    52  46  80 N3        29.98S
PENDLETON, OR  CLOUDY    48  44  86 S6        29.98F
$$




USA.gov is the U.S. government's official web portal to all federal, state and local government web resources and services.